Regional Weather Roundup
Issued by NWS

Home | Current Version | Previous Version | Text Only | Print | Product List | Glossary On
Versions: 1 2 3 4 5 6 7 8 9 10 11 12 13 14 15 16 17 18 19 20 21 22 23 24 25 26 27 28 29 30 31 32 33 34 35 36 37 38 39 40 41 42 43 44 45 46 47 48 49 50
000
ASUS43 KMKX 201920
RWRWI

WISCONSIN REGIONAL WEATHER ROUNDUP
NATIONAL WEATHER SERVICE MILWAUKEE/SULLIVAN WI
100 PM CST TUE FEB 20 2018

NOTE: "FAIR" INDICATES FEW OR NO CLOUDS BELOW 12,000 FEET WITH NO
SIGNIFICANT WEATHER AND/OR OBSTRUCTIONS TO VISIBILITY.

WIZ001-002-006>008-014>016-023>028-202000-
NORTHWEST WISCONSIN

CITY           SKY/WX    TMP DP  RH WIND       PRES   REMARKS
SUPERIOR ARPT  LGT SNOW  13   8  79 NW8       29.94S WCI   2
ASHLAND        CLOUDY    21  18  88 N6        29.87R FOG     WCI  13
HAYWARD        CLOUDY    21  18  88 NW5       29.86S WCI  15
SIREN          FLURRIES  16  11  83 W6        29.93R WCI   7
CUMBERLAND     CLOUDY    21  18  86 NW7       29.88R WCI  13
RICE LAKE      CLOUDY    23  20  88 W9        29.89S WCI  13
CHETEK         CLOUDY    23  20  88 W6        29.88R WCI  16
LADYSMITH      CLOUDY    25  22  87 W10       29.86R WCI  15
EAU CLAIRE     CLOUDY    23  19  85 W13       29.88S WCI  11
MENOMONIE      CLOUDY    24  20  82 W10       29.91R WCI  14
NEW RICHMOND   FLURRIES  19  15  83 W10       29.93R WCI   8
OSCEOLA        CLOUDY    18  14  83 W8        29.97S WCI   8
$$

WIZ003>005-009-010-017-018-202000-
NORTH CENTRAL WISCONSIN

CITY           SKY/WX    TMP DP  RH WIND       PRES   REMARKS
MANITOWISH WTR CLOUDY    23  23 100 W9        29.77R WCI  13
ARBOR VITAE    CLOUDY    26  24  93 W6        29.77R WCI  19
WOODRUFF       CLOUDY    26  24  93 W6        29.77R WCI  19
RHINELANDER    CLOUDY    28  27  96 W13       29.77S WCI  17
EAGLE RIVER    CLOUDY    27  26  96 W8        29.76S WCI  18
LAND O LAKES   CLOUDY    27  25  94 W8        29.77R WCI  18
PHILLIPS       CLOUDY    23  23 100 W6        29.79S WCI  16
TOMAHAWK       CLOUDY    27  26  93 W7        29.79S WCI  20
MEDFORD        CLOUDY    25  23  93 W8        29.81R WCI  16
MERRILL        CLOUDY    29  28  94 W7        29.80F WCI  22
$$

WIZ029-030-035-036-043>047-202000-
CENTRAL WISCONSIN

CITY           SKY/WX    TMP DP  RH WIND       PRES   REMARKS
WAUSAU         CLOUDY    30  27  88 W12       29.79R WCI  20
MOSINEE        CLOUDY    30  30 100 W10       29.82R WCI  21
MARSHFIELD     CLOUDY    28  26  92 W12       29.81S WCI  18
STEVENS POINT  CLOUDY    31  31 100 W8        29.83R WCI  23
WAUPACA        CLOUDY    36  34  93 W8        29.84R WCI  29
WAUTOMA        CLOUDY    34  30  86 W16       29.84R WCI  23
WISC RAPIDS    CLOUDY    32  28  85 W10       29.85S WCI  24
CAMP DOUGLAS   CLOUDY    32  32 100 NW10      29.85S WCI  24
$$

WIZ011>013-019>022-031-037>040-048>050-202000-
NORTHEAST WISCONSIN

CITY           SKY/WX    TMP DP  RH WIND       PRES   REMARKS
ANTIGO         CLOUDY    31  31 100 W12       29.80R FOG     WCI  21
SHAWANO        CLOUDY    34  33  93 CALM      29.80S FOG
OCONTO         CLOUDY    32  32  99 CALM      29.79F
STURGEON BAY   CLOUDY    33  32  96 W6        29.80S WCI  28
GREEN BAY      CLOUDY    35  32  88 SW9       29.81F WCI  28
MANITOWOC      LGT RAIN  40  39  97 W5        29.83R
APPLETON       CLOUDY    34  34 100 W10       29.78F WCI  26
CLINTONVILLE   CLOUDY    33  32  96 SW5       29.83R WCI  29
OSHKOSH        LGT RAIN  36  34  92 VRB7      29.84R WCI  30
$$

WIZ032>034-041-042-053>061-202000-
SOUTHWEST WISCONSIN

CITY           SKY/WX    TMP DP  RH WIND       PRES   REMARKS
LA CROSSE      CLOUDY    29  24  82 W14       29.90S WCI  18
SPARTA         CLOUDY    28  27  95 W7        29.89S WCI  21
VIROQUA        CLOUDY    28  28 100 NW7       29.86S WCI  21
BOSCOBEL       CLOUDY    34  29  82 W10       29.91R WCI  26
PRAIRIE DU CHI CLOUDY    31  30  97 W12       29.91S WCI  21
PLATTEVILLE    CLOUDY    33  33 100 W14       29.90R WCI  23
$$

WIZ056-057-062-063-064-067-068-202000-
SOUTH CENTRAL WISCONSIN

CITY           SKY/WX    TMP DP  RH WIND       PRES   REMARKS
REEDSBURG      CLOUDY    34  34 100 W10G18    29.85R WCI  26
BARABOO/DELLS  RAIN      34  33  97 W13       29.83F WCI  25
LONE ROCK      CLOUDY    35  33  92 W13G22    29.88R WCI  26
MINERAL POINT  CLOUDY    34  34 100 W13       29.86R WCI  25
MADISON        LGT RAIN  37  36  96 CALM      29.86R FOG
MIDDLETON      CLOUDY    37  37 100 W8        29.86R WCI  31
WATERTOWN      RAIN      39  39 100 SW5       29.85R
MONROE         LGT RAIN  34  34 100 W16       29.86R WCI  23
JANESVILLE     LGT RAIN  41  41 100 SW7       29.85R
$$

WIZ051-052-058>065-066-070>072-202000-
SOUTHEAST WISCONSIN

CITY           SKY/WX    TMP DP  RH WIND       PRES   REMARKS
MILWAUKEE      RAIN      52  50  93 SW10      29.82F FOG
WAUKESHA       LGT RAIN  45  45 100 W7        29.85R
MILWAUKEE/TIMM RAIN      46  43  87 S3        29.82F
RACINE         RAIN      50  50 100 W8        29.84S FOG
BURLINGTON     RAIN      49  48  96 SW13      29.84R
KENOSHA        RAIN      51  48  89 W9        29.84R FOG
FOND DU LAC    LGT RAIN  37  34  89 SW8       29.85R WCI  31
SHEBOYGAN      LGT RAIN  40  40 100 W5        29.80S FOG
WEST BEND      RAIN      45  45 100 W5        29.82R
JUNEAU         RAIN      36  36  99 SW5       29.86R WCI  32
$$

LSZ147-162-202000-
LAKE SUPERIOR

STATION/POSITION TIME  TEMP    WIND        PRES    WAVE
                       AIR SEA DIR/SP/G            HT/PER
                 (UTC) (F)     (DEG/KT/KT) (MB)    (FT/S)
DEVILS ISLAND    1900   18     360/  6/  8 1013.5R
SAXON HARBOR     1840   23      20/  9/ 10 1010.2R
$$

LMZ867-665-643>646-202000-
LAKE MICHIGAN

STATION/POSITION TIME  TEMP    WIND        PRES    WAVE
                       AIR SEA DIR/SP/G            HT/PER
                 (UTC) (F)     (DEG/KT/KT) (MB)    (FT/S)
NORTHPORT PIER   1840   31                 1008.8F
KEWAUNEE LAKESHO 1854   38     270/  3/  5 1008.1F
SHEBOYGAN LAKESH 1900   38     190/ 11/ 11 1009.5F
PORT WASHINGTON  1840   40     110/  1/  3 1010.8R
MILWAUKEE LAKESH 1900   48     220/  6/  6   N/A
KENOSHA   LAKESH 1900   52     320/  5/ 10 1009.8
$$

TC  - TEMPERATURE IN CELSIUS
VSB - VISIBILITY IN STATUTE MILES
WCI - WIND CHILL INDEX
HX  - HEAT INDEX





USA.gov is the U.S. government's official web portal to all federal, state and local government web resources and services.